Theta_e
310 311 311 312 312 312 312 313 313 314 313 314 314 315 315 316 316 308 301 309 312 319 314 306 305 305 305 302 305 306 294 291 294 295 298 304 302 307 309 310 316 319 318 321 322
311 311 311 311 311 311 312 312 313 313 313 313 314 315 316 316 307 303 309 316 317 318 307 302 301 302 297 299 300 298 291 293 299 300 299 301 301 303 305 308 312 317 318 319 323
311 311 311 311 311 311 311 313 313 313 313 313 314 316 317 312 299 300 313 317 317 315 309 305 305 302 297 299 296 295 290 295 298 300 303 302 302 303 304 303 309 313 317 317 319
311 311 311 311 310 311 312 312 312 312 313 314 314 316 316 304 286 302 314 316 316 311 306 302 299 296 293 293 298 292 295 295 297 300 302 302 305 301 303 306 309 310 317 317 318
310 310 311 310 310 311 312 312 312 312 313 314 315 317 304 293 296 306 313 311 307 307 303 300 296 296 292 293 295 293 295 298 298 298 299 304 302 302 303 307 311 316 314 315 319
310 310 310 310 311 311 311 312 312 312 313 314 315 315 299 289 304 307 307 307 304 305 303 301 299 299 295 294 293 295 295 296 297 297 299 300 300 305 305 305 312 318 314 315 318
310 310 310 310 310 311 311 311 312 312 313 313 314 309 298 294 305 306 307 305 305 304 300 303 304 299 298 294 299 297 292 294 295 296 296 301 297 298 304 303 310 316 318 315 316
310 310 310 310 310 310 311 312 312 312 314 313 315 304 293 304 305 304 305 304 307 306 303 305 306 301 299 300 296 292 292 286 293 295 297 298 286 299 305 298 300 313 316 316 313
311 310 310 310 310 310 311 311 311 311 313 315 302 297 292 306 299 302 303 302 302 305 305 308 305 299 299 292 289 289 283 286 288 295 297 296 289 298 303 297 299 306 315 316 316
311 310 309 309 309 310 311 309 309 305 305 307 304 291 295 294 299 301 303 303 300 300 300 299 296 292 292 289 281 283 285 286 286 292 295 294 291 298 298 295 295 298 305 315 315
310 309 309 309 310 310 302 294 289 288 294 290 291 291 295 299 301 299 302 300 299 295 286 291 287 280 289 292 292 290 288 285 290 293 293 292 293 295 296 294 292 294 296 302 309
309 309 308 309 310 307 298 292 294 295 285 293 294 295 297 298 294 297 302 293 292 286 288 285 282 290 293 294 292 289 285 286 290 292 293 293 291 293 294 296 294 293 296 297 303
308 308 308 309 307 298 293 293 298 299 287 290 294 294 295 297 292 294 298 294 289 286 285 283 286 293 291 291 289 287 285 284 288 293 294 292 288 293 295 296 297 296 296 298 298
308 307 308 308 297 294 290 296 298 297 277 283 288 292 294 295 289 298 299 294 289 285 285 283 289 288 289 289 290 285 292 289 289 290 284 289 281 285 291 292 294 296 295 295 298
308 307 307 302 291 290 294 297 296 289 269 283 288 296 294 290 291 291 297 294 286 287 284 283 285 285 285 289 290 288 291 291 290 288 287 285 283 285 289 288 290 294 296 296 298
308 307 305 298 294 295 297 295 291 276 269 282 287 286 286 288 290 292 291 294 293 286 284 284 288 287 286 290 291 292 289 289 288 286 279 285 284 283 285 288 289 294 296 296 295
307 307 301 298 290 297 295 287 274 271 280 278 282 284 284 284 286 287 286 285 283 276 279 284 283 287 288 285 288 287 283 272 273 277 278 283 282 283 289 292 292 291 294 297 297
308 305 301 299 297 295 288 278 267 269 273 283 283 284 282 284 284 285 283 280 286 287 283 279 275 284 288 285 284 284 283 276 269 274 278 282 278 283 291 293 294 295 296 297 298
306 295 294 296 297 292 282 268 270 272 282 282 283 279 277 283 283 281 280 280 283 289 280 279 278 286 286 287 286 284 281 284 279 275 275 278 282 288 291 290 290 291 293 293 296
293 290 290 297 295 288 277 275 271 280 284 284 279 280 276 278 280 279 277 282 283 287 289 285 278 283 286 286 286 284 286 278 277 267 269 277 277 279 284 285 287 288 289 290 292
290 284 290 296 291 282 271 270 278 284 286 283 279 280 281 280 278 279 280 282 284 285 289 287 283 281 283 282 280 282 281 282 281 279 273 272 277 284 285 286 286 287 288 288 288
287 276 294 292 277 273 270 271 284 283 285 284 283 282 281 282 281 279 281 282 290 290 286 288 283 274 278 283 284 283 280 281 275 275 276 277 276 287 287 287 287 287 287 287 288
282 284 296 288 272 269 270 274 280 283 283 283 282 284 284 282 277 281 282 287 288 289 287 288 276 268 274 279 282 282 284 283 282 280 276 273 276 286 286 285 287 285 286 286 287
283 280 286 289 281 274 270 271 275 283 283 284 284 284 283 282 283 281 283 285 287 288 292 290 281 276 271 275 279 279 282 283 281 274 277 277 278 282 283 283 285 285 286 286 287
283 277 283 280 281 276 279 278 276 275 280 283 282 283 282 278 280 280 281 283 286 290 285 284 273 277 279 278 279 280 281 281 280 280 275 277 279 282 282 282 284 284 285 285 286
281 279 282 280 283 280 280 277 279 279 279 278 278 282 282 281 282 280 281 282 281 283 282 281 271 276 272 277 276 274 278 279 281 282 281 280 280 284 283 283 283 284 284 284 285
289 288 286 282 281 279 279 279 280 282 282 283 283 282 281 282 283 282 283 283 283 282 281 279 273 269 267 271 269 266 273 277 279 279 281 279 283 283 280 283 283 283 283 283 284
Wind_Speed
8 10 11 12 12 12 13 14 15 14 14 15 16 15 14 14 13 3 4 2 6 11 5 5 4 6 2 3 3 1 3 16 9 2 3 10 2 3 4 3 3 5 2 1 16
8 10 12 12 12 12 13 14 14 15 15 14 14 13 12 12 3 2 2 6 9 10 6 8 8 7 4 3 2 3 4 7 4 3 2 5 6 9 2 4 4 3 2 11 17
8 10 11 13 13 13 13 14 15 15 16 15 14 13 11 4 1 1 3 7 10 5 2 2 3 2 3 3 2 3 8 11 16 7 4 6 7 5 8 6 7 9 7 14 16
9 9 11 12 13 15 15 15 15 16 15 15 13 12 9 2 3 1 3 8 5 3 3 3 4 3 1 2 3 4 3 4 6 7 5 3 7 11 6 14 5 6 7 13 17
7 9 10 12 13 15 16 16 15 15 15 14 13 10 3 3 2 2 4 6 1 2 2 2 4 2 2 3 4 6 6 6 8 10 8 6 10 4 14 12 15 5 11 17 16
7 8 10 12 14 15 17 18 18 16 14 11 9 5 2 1 1 1 5 2 2 2 2 1 2 3 2 5 6 4 8 12 12 13 9 10 9 4 10 13 14 5 11 13 18
7 8 9 12 14 16 18 18 18 17 11 5 2 1 2 3 0 4 3 2 2 3 3 4 2 1 2 5 3 6 12 11 10 10 11 6 13 10 0 12 15 6 6 8 11
6 7 10 12 14 16 18 18 19 14 5 2 4 2 5 3 1 3 2 3 1 3 3 1 3 3 2 4 5 5 7 7 0 7 6 9 15 10 9 10 15 9 5 6 9
6 7 10 12 15 17 19 20 14 7 3 6 3 3 6 4 3 3 2 3 3 2 1 0 3 2 1 5 4 3 7 8 11 9 5 13 7 6 14 11 9 13 6 1 4
6 6 9 12 14 17 20 16 6 2 4 2 1 3 3 4 5 5 2 2 1 1 3 2 2 0 1 1 5 5 6 7 11 4 12 13 1 11 14 13 9 14 12 5 10
5 6 9 12 14 16 9 4 6 3 6 0 1 1 3 7 2 2 2 3 1 2 3 2 1 2 6 8 11 13 11 16 7 6 4 8 6 7 16 10 17 17 14 14 11
3 5 8 11 14 11 3 6 4 2 6 2 3 4 4 1 3 3 5 2 4 3 6 4 2 4 8 8 11 6 11 10 11 6 8 9 11 13 8 8 16 20 14 17 12
3 4 7 10 9 5 3 4 1 1 0 5 3 2 3 2 2 5 4 1 4 4 4 1 5 6 4 7 14 5 7 8 5 9 5 11 4 5 5 9 16 22 14 14 14
3 3 6 10 3 1 2 2 2 1 6 4 2 2 2 1 2 3 1 2 2 2 3 4 4 4 4 7 5 6 11 7 9 2 4 5 5 1 4 12 19 16 18 13 18
4 1 4 6 2 2 1 2 0 3 5 3 4 2 5 3 4 2 2 2 1 4 1 4 5 5 2 6 4 6 6 3 5 4 3 6 5 4 7 10 12 11 13 7 7
6 2 3 2 2 1 2 1 3 8 6 1 3 4 3 4 5 6 4 5 1 2 3 5 4 3 3 7 5 11 3 2 2 3 4 6 1 3 5 5 4 7 14 18 16
6 3 3 2 1 1 2 4 7 5 3 4 2 3 2 4 3 6 4 6 4 6 7 7 5 6 2 5 5 8 5 4 6 6 4 10 8 4 9 6 5 7 6 7 11
8 6 2 1 0 2 4 7 4 3 5 0 0 1 3 4 4 6 2 4 5 4 3 5 6 7 7 1 3 5 3 3 1 2 2 7 7 6 4 6 3 2 2 4 8
12 2 1 0 2 3 6 5 9 7 3 4 2 4 4 2 1 3 4 1 1 4 1 3 5 5 3 3 2 7 5 2 5 2 4 3 1 1 2 3 4 6 6 5 3
4 3 1 1 3 5 6 5 4 3 2 1 4 3 3 3 1 2 1 3 2 1 1 1 6 3 6 2 2 3 2 3 4 3 3 2 4 2 4 5 6 9 7 7 7
4 3 2 2 3 6 5 7 4 3 2 3 4 3 3 3 3 1 3 3 3 4 2 2 1 6 2 5 2 6 4 4 3 2 3 3 0 2 2 3 6 6 5 5 6
4 1 0 1 5 0 4 7 3 4 1 1 2 2 5 5 3 1 3 3 3 1 2 1 1 3 2 3 2 1 1 1 4 3 2 2 3 2 3 5 6 5 4 4 4
5 3 1 4 4 3 4 2 2 4 4 5 5 5 3 5 2 4 4 2 1 2 1 2 2 4 8 6 4 5 3 1 1 2 1 4 4 2 3 6 5 6 5 5 5
5 5 2 2 2 7 5 4 4 2 3 3 5 4 3 4 4 5 5 3 1 2 3 2 1 4 4 3 2 3 4 3 2 3 3 3 5 3 4 6 5 5 5 5 5
2 6 5 7 8 4 5 7 6 5 1 2 1 6 5 4 3 4 3 2 0 1 3 2 2 0 0 2 3 3 3 3 2 1 3 2 7 5 6 7 5 4 4 5 6
6 6 0 4 5 13 8 8 10 5 9 5 4 8 6 7 7 7 6 3 4 2 2 1 2 1 3 2 3 4 7 4 3 3 4 2 1 4 3 5 5 6 5 6 6
3 2 5 8 6 9 8 7 10 11 6 4 9 5 6 6 4 3 4 4 4 5 3 2 4 3 4 4 4 6 8 7 3 1 6 5 5 5 4 6 6 5 5 4 3
Wind_Direction
9 2 359 356 355 352 348 345 344 342 343 341 340 338 339 334 334 7 53 333 4 353 17 319 15 354 42 26 332 318 255 248 251 203 272 284 317 316 324 207 221 209 178 151 137
4 359 353 351 347 345 343 341 340 337 338 336 334 335 337 340 0 21 289 354 357 9 24 24 2 0 33 14 309 182 252 271 9 344 355 303 316 305 253 271 242 232 61 131 142
355 351 347 345 341 340 339 337 336 335 335 334 334 332 337 356 39 288 11 352 338 31 54 33 338 15 37 345 291 259 246 259 280 285 318 326 316 316 292 263 234 218 177 162 161
346 342 339 338 336 334 334 335 333 330 331 329 326 327 338 109 116 255 344 339 326 43 45 24 2 24 3 276 307 300 315 328 320 334 332 287 319 324 267 269 324 296 175 168 178
336 336 334 333 333 331 330 328 325 326 327 325 319 329 26 54 206 176 339 331 31 80 66 22 52 38 2 313 306 252 292 298 290 275 260 255 261 231 297 301 306 276 175 181 189
334 337 333 329 329 329 328 325 323 323 322 317 317 339 64 81 148 32 328 318 175 135 139 167 185 168 227 244 218 231 274 271 279 285 291 257 248 231 264 331 296 217 210 204 188
324 330 329 326 327 327 325 323 319 315 311 298 296 66 54 176 237 330 290 234 191 165 175 211 162 138 156 265 295 281 287 293 247 220 233 234 267 230 295 331 292 266 228 207 201
306 318 323 324 326 325 323 319 317 311 312 195 119 73 253 245 226 314 316 306 106 181 192 112 192 219 210 299 282 266 266 283 227 203 244 163 259 217 35 352 296 309 224 200 181
302 315 322 327 326 324 321 317 315 305 257 143 109 97 292 308 6 309 252 276 306 141 234 236 228 221 157 287 273 227 272 257 294 198 200 184 249 169 41 359 7 359 336 337 97
297 308 319 325 328 326 322 317 293 27 33 82 84 74 345 305 296 321 266 260 330 342 106 149 226 273 196 264 302 280 259 256 252 288 203 200 156 63 32 352 53 33 7 41 45
282 305 321 328 330 332 349 22 22 339 36 6 261 233 250 290 266 286 319 338 51 40 9 305 1 309 320 317 296 268 279 268 224 245 248 218 167 62 19 287 41 49 7 21 35
257 303 323 329 331 344 48 67 104 243 321 319 261 274 240 254 329 313 358 36 32 8 339 14 320 311 306 309 332 281 281 307 258 208 202 151 131 87 34 332 50 56 23 20 358
222 305 323 327 340 38 57 121 319 213 263 304 230 266 282 75 318 288 37 351 48 9 350 230 279 323 341 343 349 315 307 333 299 90 69 120 52 121 192 26 48 51 44 30 4
199 295 325 329 52 301 53 332 317 142 68 309 357 4 4 34 310 260 62 92 5 326 320 247 299 336 348 350 342 328 344 342 11 95 69 351 133 248 74 53 36 31 36 22 15
196 263 5 35 170 67 212 318 262 63 21 302 322 308 332 45 305 28 316 60 34 310 6 288 317 336 349 283 319 262 333 342 45 49 109 15 89 334 15 33 31 20 57 41 53
189 191 108 37 37 54 340 18 52 44 255 4 315 347 46 10 347 313 21 42 204 333 327 270 275 246 261 285 247 284 288 250 5 73 74 341 274 36 30 29 11 42 22 31 20
180 165 111 116 225 341 44 44 36 131 332 307 340 31 106 343 3 27 38 18 42 33 4 327 314 310 321 338 321 14 21 349 3 45 19 338 53 31 17 39 28 48 35 25 46
162 127 30 113 109 76 58 49 95 232 227 179 16 56 56 350 8 355 68 27 6 28 1 352 334 353 334 71 292 320 42 109 113 44 16 1 26 17 316 328 327 132 91 46 19
125 33 59 301 121 63 70 73 206 204 183 161 62 78 332 346 28 44 25 14 298 20 353 357 273 308 256 310 55 318 38 282 112 349 69 7 144 45 235 1 45 58 41 26 29
101 101 278 157 123 75 77 237 205 204 156 149 167 137 190 275 73 63 346 260 315 255 101 322 298 276 295 345 3 44 296 14 7 68 68 53 60 72 20 33 45 52 39 25 33
74 92 266 1 67 49 159 228 236 213 177 145 195 148 203 169 143 197 199 247 210 301 233 331 132 293 3 15 348 346 8 33 112 66 135 117 324 218 147 114 97 69 61 42 41
119 87 183 54 74 124 168 190 256 165 148 151 118 153 192 172 152 213 224 184 16 210 305 50 3 259 252 277 237 241 354 36 105 280 44 89 226 127 164 127 114 97 91 73 56
118 136 78 95 152 248 302 295 241 158 186 170 191 204 204 172 124 202 207 198 33 45 62 23 331 356 347 353 6 44 336 326 74 52 225 122 233 113 122 91 77 96 65 53 51
117 138 177 161 159 147 148 229 194 258 189 179 166 149 169 168 196 186 197 215 173 175 75 79 128 176 190 220 311 323 338 359 46 86 184 201 150 146 130 109 100 81 68 56 46
133 208 181 170 204 172 193 151 142 171 246 216 242 220 175 146 168 217 168 150 344 150 68 108 160 189 165 14 320 286 283 330 64 51 118 209 157 197 167 153 157 141 100 68 40
148 142 355 152 136 165 196 207 170 178 149 227 203 189 192 159 183 195 159 196 195 132 101 31 162 89 335 350 0 292 283 267 244 163 115 66 133 173 117 102 126 134 109 66 36
182 125 132 155 152 162 204 190 196 144 222 185 190 139 187 206 133 101 103 72 137 152 133 81 128 77 271 340 346 332 229 193 192 216 141 171 201 174 138 148 158 138 102 82 38